Sigfox identifier Datetime Temperature Humidity SNR
002EEEE7 2019-04-23 14:54:46 21.6 30 22.5
002EEEE7 2019-04-23 14:23:33 21.5 30 22.7
002EEEE7 2019-04-23 13:52:23 21.6 30 22.9
002EEEE7 2019-04-23 13:21:08 21.6 30 22.8
002EEEE7 2019-04-23 12:49:54 21.6 30 22.9
002EEEE7 2019-04-23 12:18:41 21.6 29 23.3
002EEEE7 2019-04-23 11:16:18 21.5 29 23.3
002EEEE7 2019-04-23 10:45:03 21.4 29 23.5
002EEEE7 2019-04-23 10:13:50 21.4 29 23.6
002EEEE7 2019-04-23 09:42:38 21.3 29 23.5
002EEEE7 2019-04-23 09:11:25 21.2 29 23.5
002EEEE7 2019-04-23 08:40:11 21.1 29 23.7
002EEEE7 2019-04-23 08:08:59 21 28 23.8
002EEEE7 2019-04-23 07:37:51 21 28 23.8
002EEEE7 2019-04-23 07:06:35 21 28 23.7
002EEEE7 2019-04-23 06:35:23 21 28 23.8
002EEEE7 2019-04-23 06:04:11 21 28 23.8
002EEEE7 2019-04-23 05:32:59 21.1 28 23.2
002EEEE7 2019-04-23 05:01:47 21 28 23.3
002EEEE7 2019-04-23 04:30:34 21.1 28 23.2
002EEEE7 2019-04-23 03:59:23 21.1 29 23.6
002EEEE7 2019-04-23 03:28:11 21.1 28 23.4
002EEEE7 2019-04-23 02:56:58 21 28 23.2
002EEEE7 2019-04-23 02:25:46 21.1 28 22.9
002EEEE7 2019-04-23 01:54:35 21.2 28 22.9
002EEEE7 2019-04-23 01:23:21 21.1 28 22.8
002EEEE7 2019-04-23 00:52:09 21.1 29 22.8
002EEEE7 2019-04-23 00:20:57 21.1 28 22.9
002EEEE7 2019-04-22 23:49:45 21.2 28 23
002EEEE7 2019-04-22 23:18:32 21.1 28 22.6
002EEEE7 2019-04-22 22:47:20 21 28 22.9
002EEEE7 2019-04-22 22:16:07 21.1 28 22.7
002EEEE7 2019-04-22 21:44:54 21.1 29 22.7
002EEEE7 2019-04-22 21:13:40 21 29 22.7
002EEEE7 2019-04-22 20:42:27 20.9 29 22.7
002EEEE7 2019-04-22 20:11:14 20.9 29 22.5
002EEEE7 2019-04-22 19:40:01 21 29 22.5
002EEEE7 2019-04-22 19:08:48 21 29 22.5
002EEEE7 2019-04-22 18:37:35 20.9 29 22.6
002EEEE7 2019-04-22 18:06:22 21 29 22.4
002EEEE7 2019-04-22 17:35:09 20.9 29 22.5
002EEEE7 2019-04-22 17:03:55 20.9 29 22.7
002EEEE7 2019-04-22 16:32:42 21 29 22.8
002EEEE7 2019-04-22 16:01:28 21 28 22.7
002EEEE7 2019-04-22 15:30:15 20.9 28 23
002EEEE7 2019-04-22 14:59:00 21 28 22.8
002EEEE7 2019-04-22 14:27:45 20.9 28 22.8
002EEEE7 2019-04-22 13:56:31 21 28 22.9
002EEEE7 2019-04-22 13:25:17 21 28 22.9
002EEEE7 2019-04-22 12:54:05 21.1 28 22.7
002EEEE7 2019-04-22 12:22:52 21 28 22.8
002EEEE7 2019-04-22 11:51:40 21.1 28 22.6
002EEEE7 2019-04-22 11:20:25 21.1 28 22.8
002EEEE7 2019-04-22 10:49:11 21.1 27 22.8
002EEEE7 2019-04-22 10:17:57 21.1 27 22.7
002EEEE7 2019-04-22 09:46:45 21.1 27 22.7
002EEEE7 2019-04-22 09:15:31 21.1 27 22.9
002EEEE7 2019-04-22 08:44:18 21.1 27 22.8
002EEEE7 2019-04-22 08:13:04 21.2 27 22.9
002EEEE7 2019-04-22 07:41:51 21.2 27 23
002EEEE7 2019-04-22 07:10:36 21.1 27 23
002EEEE7 2019-04-22 06:39:23 21.1 27 22.8
002EEEE7 2019-04-22 06:08:09 21.1 27 22.9
002EEEE7 2019-04-22 05:36:56 21.2 27 23
002EEEE7 2019-04-22 05:05:42 21.1 27 22.9
002EEEE7 2019-04-22 04:34:28 21.1 27 22.6
002EEEE7 2019-04-22 04:03:13 21.1 27 22.6
002EEEE7 2019-04-22 03:32:00 21.1 27 22.2
002EEEE7 2019-04-22 03:00:46 21.2 27 22.3
002EEEE7 2019-04-22 02:29:32 21.2 27 22
002EEEE7 2019-04-22 01:58:18 21.2 27 21.9
002EEEE7 2019-04-22 01:27:03 21.3 27 21.9
002EEEE7 2019-04-22 00:55:51 21.3 27 21.7
002EEEE7 2019-04-22 00:24:39 21.2 27 22
002EEEE7 2019-04-21 23:53:27 21.3 27 22.2
002EEEE7 2019-04-21 23:22:14 21.3 27 22.1
002EEEE7 2019-04-21 22:51:01 21.4 27 22.1
002EEEE7 2019-04-21 22:19:51 21.4 27 21.9
002EEEE7 2019-04-21 21:48:36 21.4 27 21.7
002EEEE7 2019-04-21 21:17:24 21.3 27 21.6
002EEEE7 2019-04-21 20:46:12 21.4 27 21.4
002EEEE7 2019-04-21 20:14:59 21.3 27 21.4
002EEEE7 2019-04-21 19:43:46 21.3 27 21.7
002EEEE7 2019-04-21 19:12:34 21.4 27 21.7
002EEEE7 2019-04-21 18:41:20 21.3 27 21.9
002EEEE7 2019-04-21 18:10:07 21.3 27 21.8
002EEEE7 2019-04-21 17:38:55 21.3 27 21.8
002EEEE7 2019-04-21 17:07:42 21.2 27 21.7
002EEEE7 2019-04-21 16:36:29 21.2 27 21.5
002EEEE7 2019-04-21 16:05:16 21.1 27 21.8
002EEEE7 2019-04-21 15:34:03 21.1 27 21.8
002EEEE7 2019-04-21 15:02:48 21.1 27 21.6
002EEEE7 2019-04-21 14:31:34 21.1 27 22
002EEEE7 2019-04-21 14:00:21 21.1 27 22.2
002EEEE7 2019-04-21 13:29:07 21.1 27 22.4
002EEEE7 2019-04-21 12:57:51 21 27 22.3
002EEEE7 2019-04-21 12:26:37 21 27 22.4
002EEEE7 2019-04-21 11:55:22 21 27 22.3
002EEEE7 2019-04-21 11:24:08 20.9 27 22.2
002EEEE7 2019-04-21 10:52:54 21 27 22.1
002EEEE7 2019-04-21 10:21:40 21 27 22
002EEEE7 2019-04-21 09:50:26 20.9 27 22.1
002EEEE7 2019-04-21 09:19:14 20.9 27 22.1
002EEEE7 2019-04-21 08:48:00 21 27 22.1
002EEEE7 2019-04-21 08:16:47 20.9 27 22.5
002EEEE7 2019-04-21 07:45:33 20.9 27 22.5
002EEEE7 2019-04-21 07:14:20 21 27 22.4
002EEEE7 2019-04-21 06:43:07 21 27 22.4
002EEEE7 2019-04-21 06:11:53 21.1 27 22.2
002EEEE7 2019-04-21 05:40:40 21 27 22.1
002EEEE7 2019-04-21 05:09:26 21.1 27 22.3
002EEEE7 2019-04-21 04:38:13 21.1 27 22.3
002EEEE7 2019-04-21 04:06:59 21.1 27 22.5
002EEEE7 2019-04-21 03:35:44 21.1 27 22.6
002EEEE7 2019-04-21 03:04:30 21.1 27 22.4
002EEEE7 2019-04-21 02:33:14 21.1 27 22.4
002EEEE7 2019-04-21 02:01:58 21.1 26 22.3
002EEEE7 2019-04-21 01:30:45 21.2 26 21.7
002EEEE7 2019-04-21 00:59:28 21.2 26 21.4
002EEEE7 2019-04-21 00:28:13 21.1 26 21.3
002EEEE7 2019-04-20 23:56:58 21.1 26 21.4
002EEEE7 2019-04-20 23:25:44 21.2 26 21.5
002EEEE7 2019-04-20 22:54:29 21.2 26 21.3
002EEEE7 2019-04-20 22:23:16 21.2 26 21.5
002EEEE7 2019-04-20 21:52:03 21.1 26 21.6
002EEEE7 2019-04-20 21:20:49 21.1 26 21.5
002EEEE7 2019-04-20 20:49:35 21.1 26 21.4
002EEEE7 2019-04-20 20:18:21 21.1 26 21.3
002EEEE7 2019-04-20 19:47:07 21.1 26 20.8
002EEEE7 2019-04-20 19:15:52 21.2 25 20.8
002EEEE7 2019-04-20 18:44:38 21.1 25 20.7
002EEEE7 2019-04-20 18:13:25 21.2 25 20.2
002EEEE7 2019-04-20 17:42:10 21.2 25 20.1
002EEEE7 2019-04-20 17:10:56 21.2 25 19.7
002EEEE7 2019-04-20 16:39:42 21.1 25 19.4
002EEEE7 2019-04-20 16:08:27 21.2 25 19.4
002EEEE7 2019-04-20 15:37:12 21.2 25 20.8
002EEEE7 2019-04-20 15:05:57 21.2 25 20.6
002EEEE7 2019-04-20 14:34:43 21.1 25 20.4
002EEEE7 2019-04-20 14:03:31 21.2 25 20.5
002EEEE7 2019-04-20 13:32:16 21.1 25 20.6
002EEEE7 2019-04-20 13:01:03 21.2 25 20.9
002EEEE7 2019-04-20 12:29:49 21.2 25 20.9
002EEEE7 2019-04-20 11:58:35 21 25 21
002EEEE7 2019-04-20 11:27:21 21.1 25 21
002EEEE7 2019-04-20 10:56:09 21 24 20.9
002EEEE7 2019-04-20 10:24:55 21 24 20.8
002EEEE7 2019-04-20 09:53:42 21.1 24 20.8
002EEEE7 2019-04-20 09:22:29 21 24 20.7
002EEEE7 2019-04-20 08:51:15 21 24 20.8
002EEEE7 2019-04-20 08:20:01 21 24 21
002EEEE7 2019-04-20 07:48:47 21 24 21
002EEEE7 2019-04-20 07:17:33 20.9 24 21
002EEEE7 2019-04-20 06:46:19 21 24 21.4
002EEEE7 2019-04-20 06:15:03 21 24 21.6
002EEEE7 2019-04-20 05:43:48 21 24 21.9
002EEEE7 2019-04-20 05:12:33 21 24 21.9
002EEEE7 2019-04-20 04:41:18 21 24 21.9
002EEEE7 2019-04-20 04:10:02 21 24 21.9
002EEEE7 2019-04-20 03:38:48 21 24 21.9
002EEEE7 2019-04-20 03:07:36 21 24 21.9
002EEEE7 2019-04-20 02:36:20 21 24 20.6
002EEEE7 2019-04-20 02:05:08 21 24 21
002EEEE7 2019-04-20 01:33:52 21 24 21.2
002EEEE7 2019-04-20 01:02:36 21 24 21.1
002EEEE7 2019-04-20 00:31:21 21 24 21.3
002EEEE7 2019-04-20 00:00:06 21 24 21.1
002EEEE7 2019-04-19 23:28:51 21 24 21.2
002EEEE7 2019-04-19 22:57:37 20.9 24 21.2
002EEEE7 2019-04-19 22:26:22 21 24 21.3
002EEEE7 2019-04-19 21:55:08 20.9 24 21.5
002EEEE7 2019-04-19 21:23:53 21 24 21.6
002EEEE7 2019-04-19 20:52:40 21 24 21.9
002EEEE7 2019-04-19 20:21:26 21 24 21.8
002EEEE7 2019-04-19 19:50:12 21 24 21.8
002EEEE7 2019-04-19 19:18:59 21 24 21.6
002EEEE7 2019-04-19 18:47:46 20.9 24 21.7
002EEEE7 2019-04-19 18:16:32 20.8 24 21.8
002EEEE7 2019-04-19 17:45:18 20.9 24 21.5
002EEEE7 2019-04-19 17:14:04 20.9 24 21.3
002EEEE7 2019-04-19 16:42:50 21 24 21.3
002EEEE7 2019-04-19 16:11:35 20.9 24 21.4
002EEEE7 2019-04-19 15:40:22 21 24 21.7
002EEEE7 2019-04-19 15:09:08 20.9 24 21.9
002EEEE7 2019-04-19 14:37:54 20.9 24 22
002EEEE7 2019-04-19 14:06:42 21 25 22
002EEEE7 2019-04-19 13:35:29 20.9 25 21.8
002EEEE7 2019-04-19 13:04:16 21 25 21.7
002EEEE7 2019-04-19 12:33:02 21 25 22
002EEEE7 2019-04-19 12:01:47 21 25 22.1
002EEEE7 2019-04-19 11:30:32 21 25 22.2
002EEEE7 2019-04-19 10:59:18 20.9 25 22.4
002EEEE7 2019-04-19 10:28:05 21 25 22.4
002EEEE7 2019-04-19 09:56:51 21.1 26 22.4
002EEEE7 2019-04-19 09:25:38 21.1 26 22.4
002EEEE7 2019-04-19 08:54:24 21.2 26 22.6
002EEEE7 2019-04-19 08:23:09 21.1 26 22.4
002EEEE7 2019-04-19 07:51:54 21.1 26 22.6
002EEEE7 2019-04-19 07:20:41 21.1 26 22.7
002EEEE7 2019-04-19 06:49:27 21.1 26 22.8
002EEEE7 2019-04-19 06:18:13 21.2 26 22.8
002EEEE7 2019-04-19 05:46:59 21.2 26 22.7
002EEEE7 2019-04-19 05:15:45 21.2 26 22.8
002EEEE7 2019-04-19 04:44:32 21.1 26 22.9
002EEEE7 2019-04-19 04:13:19 21.2 26 22.7
002EEEE7 2019-04-19 03:42:05 21.1 26 22.6
002EEEE7 2019-04-19 03:10:51 21.2 26 22.3
002EEEE7 2019-04-19 02:39:37 21.2 26 23
002EEEE7 2019-04-19 02:08:24 21.2 26 23.8
002EEEE7 2019-04-19 01:37:11 21.3 26 24.3
002EEEE7 2019-04-19 01:05:58 21.3 26 24.5
002EEEE7 2019-04-19 00:34:45 21.3 26 24.7
002EEEE7 2019-04-19 00:03:32 21.2 26 24.9
002EEEE7 2019-04-18 23:32:17 21.2 26 24.9
002EEEE7 2019-04-18 23:01:05 21.2 26 24.8
002EEEE7 2019-04-18 22:29:51 21.3 26 24.9
002EEEE7 2019-04-18 21:58:36 21.3 26 25
002EEEE7 2019-04-18 21:27:22 21.2 26 25.2
002EEEE7 2019-04-18 20:56:06 21.1 26 25.3
002EEEE7 2019-04-18 20:24:51 21.1 26 25.2
002EEEE7 2019-04-18 19:53:36 21.3 26 25.4
002EEEE7 2019-04-18 19:22:22 21.4 26 25.4
002EEEE7 2019-04-18 18:51:09 21.4 26 25.8
002EEEE7 2019-04-18 18:19:56 21.4 26 25.8
002EEEE7 2019-04-18 17:48:42 21.6 26 26
002EEEE7 2019-04-18 17:17:30 21.6 26 26
002EEEE7 2019-04-18 16:46:16 21.6 26 26.2
002EEEE7 2019-04-18 16:15:04 21.6 26 26.6
002EEEE7 2019-04-18 15:43:50 21.6 26 26.6
002EEEE7 2019-04-18 15:12:36 21.6 26 26.8
002EEEE7 2019-04-18 14:41:24 21.6 26 27
002EEEE7 2019-04-18 14:10:10 21.7 26 27
002EEEE7 2019-04-18 13:38:58 21.8 26 26.8
002EEEE7 2019-04-18 13:07:45 22 26 26.5
002EEEE7 2019-04-18 12:36:31 22.2 26 26.3
002EEEE7 2019-04-18 12:05:17 22.4 22 26.4
002EEEE7 2019-04-18 11:34:03 22.3 22 26.5
002EEEE7 2019-04-18 11:02:49 22.2 22 26.5
002EEEE7 2019-04-18 10:31:34 22.2 23 26.4
002EEEE7 2019-04-18 10:00:19 22.2 23 26.4
002EEEE7 2019-04-18 09:29:04 22.2 23 26.3
002EEEE7 2019-04-18 08:57:49 22.2 22 26.4
002EEEE7 2019-04-18 08:26:35 22.2 22 26.3
002EEEE7 2019-04-18 07:55:22 22.2 22 26.3
002EEEE7 2019-04-18 07:24:09 22.2 22 26.4
002EEEE7 2019-04-18 06:52:56 22.2 23 26.3
002EEEE7 2019-04-18 06:21:43 22.2 23 26.3
002EEEE7 2019-04-18 05:50:29 22.2 23 26
002EEEE7 2019-04-18 05:19:17 22.2 23 25.9
002EEEE7 2019-04-18 04:48:05 22.2 23 25.8
002EEEE7 2019-04-18 04:16:53 22.2 23 26.1
002EEEE7 2019-04-18 03:45:41 22.3 23 26
002EEEE7 2019-04-18 03:14:29 22.3 23 25.8
002EEEE7 2019-04-18 02:43:17 22.4 23 26.1
002EEEE7 2019-04-18 02:12:05 22.4 23 26.1
002EEEE7 2019-04-18 01:40:53 22.5 23 25.9
002EEEE7 2019-04-18 01:09:40 22.5 23 26.1
002EEEE7 2019-04-18 00:38:27 22.4 23 26
002EEEE7 2019-04-18 00:07:13 22.4 23 26
002EEEE7 2019-04-17 23:36:00 22.5 23 26.1
002EEEE7 2019-04-17 23:04:46 22.5 23 25.8
002EEEE7 2019-04-17 22:33:33 22.6 23 25.8
002EEEE7 2019-04-17 22:02:20 22.7 23 25.8
002EEEE7 2019-04-17 21:31:07 22.7 23 25.9
002EEEE7 2019-04-17 20:59:54 22.7 23 26
002EEEE7 2019-04-17 20:28:40 22.8 23 26.4
002EEEE7 2019-04-17 19:57:27 22.9 23 26.3
002EEEE7 2019-04-17 19:26:14 22.9 23 26.3
002EEEE7 2019-04-17 18:55:01 22.9 23 26.3
002EEEE7 2019-04-17 18:23:46 22.8 23 26.2
002EEEE7 2019-04-17 17:52:33 22.9 22 26.2
002EEEE7 2019-04-17 17:21:20 22.9 22 26.3
002EEEE7 2019-04-17 16:50:06 22.9 23 26.5
002EEEE7 2019-04-17 16:18:50 23 23 26.6
002EEEE7 2019-04-17 15:47:35 22.9 23 26.6
002EEEE7 2019-04-17 15:16:21 22.9 24 26.4
002EEEE7 2019-04-17 14:45:08 22.8 24 26.5
002EEEE7 2019-04-17 14:13:53 22.8 24 26.3
002EEEE7 2019-04-17 13:42:39 22.6 24 26
002EEEE7 2019-04-17 13:11:23 22.6 24 26
002EEEE7 2019-04-17 12:40:09 22.4 24 26
002EEEE7 2019-04-17 12:08:55 22.5 23 26
002EEEE7 2019-04-17 11:37:41 22.3 23 26.1
002EEEE7 2019-04-17 11:06:26 22.2 23 26.1
002EEEE7 2019-04-17 10:35:12 22.2 22 26.1
002EEEE7 2019-04-17 10:03:59 22.2 22 26.2
002EEEE7 2019-04-17 09:32:45 22.2 22 26.1
002EEEE7 2019-04-17 09:01:31 22.2 22 26.2
002EEEE7 2019-04-17 08:30:16 22.2 22 26.2
002EEEE7 2019-04-17 07:59:01 22.2 21 26.3
002EEEE7 2019-04-17 07:27:48 22.2 20 26.3
002EEEE7 2019-04-17 06:56:35 22.1 20 26.4
002EEEE7 2019-04-17 06:25:22 22.1 20 26.5
002EEEE7 2019-04-17 05:54:09 22.1 21 26.4
002EEEE7 2019-04-17 05:22:57 22.1 21 26.5
002EEEE7 2019-04-17 04:51:44 22.2 21 26.5
002EEEE7 2019-04-17 04:20:30 22.2 21 26.5
002EEEE7 2019-04-17 03:49:16 22.2 21 26.2
002EEEE7 2019-04-17 03:18:03 22.2 21 26.1
002EEEE7 2019-04-17 02:46:50 22.2 21 26.2
002EEEE7 2019-04-17 02:15:36 22.2 21 26.3
002EEEE7 2019-04-17 01:44:23 22.2 21 26.3
002EEEE7 2019-04-17 01:13:09 22.2 21 26.5
002EEEE7 2019-04-17 00:41:56 22.2 21 26.5
002EEEE7 2019-04-17 00:10:43 22.2 21 26.6
002EEEE7 2019-04-16 23:39:29 22.3 21 26.7
002EEEE7 2019-04-16 23:08:16 22.3 21 26.6
002EEEE7 2019-04-16 22:37:02 22.5 21 26.9
002EEEE7 2019-04-16 22:05:49 22.5 21 26.8
002EEEE7 2019-04-16 21:34:37 22.5 21 27
002EEEE7 2019-04-16 21:03:23 22.5 21 26.9
002EEEE7 2019-04-16 20:32:12 22.5 21 27
002EEEE7 2019-04-16 20:01:01 22.5 20 27
002EEEE7 2019-04-16 19:29:49 22.5 20 27.1
002EEEE7 2019-04-16 18:58:37 22.5 20 27
002EEEE7 2019-04-16 18:27:26 22.5 20 26.8
002EEEE7 2019-04-16 17:56:14 22.7 20 26.8
002EEEE7 2019-04-16 17:25:02 22.6 19 26.7
002EEEE7 2019-04-16 16:53:50 22.7 20 26.8
002EEEE7 2019-04-16 16:22:37 22.8 20 26.8
002EEEE7 2019-04-16 15:51:25 22.8 20 26.8
002EEEE7 2019-04-16 15:20:13 22.7 20 27
002EEEE7 2019-04-16 14:49:00 22.7 20 27.1
002EEEE7 2019-04-16 14:17:48 22.6 20 27.4
002EEEE7 2019-04-16 13:46:36 22.5 19 27.4
002EEEE7 2019-04-16 13:15:25 22.4 20 27.3
002EEEE7 2019-04-16 12:44:12 22.4 19 27.4
002EEEE7 2019-04-16 12:13:00 22.3 19 27.3
002EEEE7 2019-04-16 11:41:48 22.2 19 27.3
002EEEE7 2019-04-16 11:10:35 22.2 19 27.3
002EEEE7 2019-04-16 10:39:22 22.2 19 27.3
002EEEE7 2019-04-16 10:08:09 22.2 19 27.3
002EEEE7 2019-04-16 09:36:55 22.2 19 27.1
002EEEE7 2019-04-16 09:05:43 22.1 19 27.2
002EEEE7 2019-04-16 08:34:30 22.2 19 27
002EEEE7 2019-04-16 08:03:17 22.1 19 27
002EEEE7 2019-04-16 07:32:04 22.2 18 27
002EEEE7 2019-04-16 07:00:50 22.1 18 26.9
002EEEE7 2019-04-16 06:29:37 22.1 18 26.7
002EEEE7 2019-04-16 05:58:24 22 18 26.6
002EEEE7 2019-04-16 05:27:10 22 18 26.5
002EEEE7 2019-04-16 04:55:56 22 18 26.5
002EEEE7 2019-04-16 04:24:43 22.1 18 26.5
002EEEE7 2019-04-16 03:53:30 22.2 18 26.4
002EEEE7 2019-04-16 03:22:18 22.2 18 26.5
002EEEE7 2019-04-16 02:51:05 22.2 18 26.5
002EEEE7 2019-04-16 02:19:52 22.2 18 26.3
002EEEE7 2019-04-16 01:48:38 22.2 18 26.3
002EEEE7 2019-04-16 01:17:25 22.2 18 26
002EEEE7 2019-04-16 00:46:13 22.2 18 25.9
002EEEE7 2019-04-16 00:15:01 22.2 18 25.9
002EEEE7 2019-04-15 23:43:47 22.2 18 26.1
002EEEE7 2019-04-15 23:12:34 22.2 18 26
002EEEE7 2019-04-15 22:41:23 22.2 18 25.9
002EEEE7 2019-04-15 22:10:11 22.3 18 25.8
002EEEE7 2019-04-15 21:38:58 22.3 18 25.8
002EEEE7 2019-04-15 21:07:46 22.4 17 25.9
002EEEE7 2019-04-15 20:36:33 22.5 17 25.9
002EEEE7 2019-04-15 20:05:21 22.5 17 25.9
002EEEE7 2019-04-15 19:34:08 22.5 17 26.2
002EEEE7 2019-04-15 19:02:56 22.5 16 26.5
002EEEE7 2019-04-15 18:31:43 22.4 16 26.5
002EEEE7 2019-04-15 18:00:31 22.7 16 26.4
002EEEE7 2019-04-15 17:29:19 22.7 16 26.6
002EEEE7 2019-04-15 16:58:07 22.6 16 26.9
002EEEE7 2019-04-15 16:26:52 22.7 16 27
002EEEE7 2019-04-15 15:55:39 22.6 17 26.9
002EEEE7 2019-04-15 15:24:26 22.7 17 26.9
002EEEE7 2019-04-15 14:53:14 22.7 17 27
002EEEE7 2019-04-15 14:22:01 22.6 17 26.9
002EEEE7 2019-04-15 13:50:47 22.5 17 27
002EEEE7 2019-04-15 13:19:33 22.4 17 27
002EEEE7 2019-04-15 12:48:20 22.5 17 27
002EEEE7 2019-04-15 12:17:06 22.3 17 27
002EEEE7 2019-04-15 11:45:52 22.2 17 27.1
002EEEE7 2019-04-15 11:14:38 22.2 17 27.3
002EEEE7 2019-04-15 10:43:22 22.2 18 27.1
002EEEE7 2019-04-15 10:12:08 22.1 18 27.2
002EEEE7 2019-04-15 09:40:53 22 18 27.3
002EEEE7 2019-04-15 09:09:37 22 18 27.4
002EEEE7 2019-04-15 08:38:24 22 18 27.5
002EEEE7 2019-04-15 08:07:10 22 18 27.6
002EEEE7 2019-04-15 07:35:56 21.9 18 27.6
002EEEE7 2019-04-15 07:04:42 21.8 18 27.8
002EEEE7 2019-04-15 06:33:29 21.8 18 27.5
002EEEE7 2019-04-15 06:02:16 21.8 18 27.5
002EEEE7 2019-04-15 05:31:01 21.8 18 27.5
002EEEE7 2019-04-15 04:59:47 21.8 18 27.7
002EEEE7 2019-04-15 04:28:35 21.8 19 27.7
002EEEE7 2019-04-15 03:57:22 21.8 19 27.5
002EEEE7 2019-04-15 03:26:10 21.8 19 27.5
002EEEE7 2019-04-15 02:54:57 21.8 19 27.6
002EEEE7 2019-04-15 02:23:45 21.8 19 27.6
002EEEE7 2019-04-15 01:52:32 21.8 19 27.6
002EEEE7 2019-04-15 01:21:19 21.8 19 27.6
002EEEE7 2019-04-15 00:50:07 21.8 19 27.5
002EEEE7 2019-04-15 00:18:56 21.8 19 27.4
002EEEE7 2019-04-14 23:47:44 21.8 19 27.4
002EEEE7 2019-04-14 23:16:31 21.8 19 27.4
002EEEE7 2019-04-14 22:45:19 21.8 19 27.4
002EEEE7 2019-04-14 22:14:05 22 19 27.3
002EEEE7 2019-04-14 21:42:52 22 19 27.3
002EEEE7 2019-04-14 21:11:39 22 19 27.2
002EEEE7 2019-04-14 20:40:25 22 19 27.1
002EEEE7 2019-04-14 20:09:13 22 19 27.2
002EEEE7 2019-04-14 19:38:01 22 19 27.3
002EEEE7 2019-04-14 19:06:48 22 19 27.1
002EEEE7 2019-04-14 18:35:36 22 19 27.1
002EEEE7 2019-04-14 18:04:23 22 19 27.1
002EEEE7 2019-04-14 17:33:13 22 19 27.1
002EEEE7 2019-04-14 17:02:03 21.9 19 26.9
002EEEE7 2019-04-14 16:30:51 21.9 19 27
002EEEE7 2019-04-14 15:59:42 21.9 19 26.7
002EEEE7 2019-04-14 15:28:29 21.9 19 26.9
002EEEE7 2019-04-14 14:57:18 21.9 19 26.9
002EEEE7 2019-04-14 14:26:07 22 19 26.9
002EEEE7 2019-04-14 13:54:56 22 20 26.9
002EEEE7 2019-04-14 13:23:43 21.9 20 27
002EEEE7 2019-04-14 12:52:31 21.9 20 26.9
002EEEE7 2019-04-14 12:21:18 22 20 27
002EEEE7 2019-04-14 11:50:06 22 20 27
002EEEE7 2019-04-14 11:18:52 21.9 20 27.1
002EEEE7 2019-04-14 10:47:39 22 20 27
002EEEE7 2019-04-14 10:16:27 21.9 20 27.1
002EEEE7 2019-04-14 09:45:13 21.9 20 27
002EEEE7 2019-04-14 09:14:01 21.9 20 27
002EEEE7 2019-04-14 08:42:49 21.9 19 27.1
002EEEE7 2019-04-14 08:11:37 21.8 19 27.1
002EEEE7 2019-04-14 07:40:24 21.9 19 27.2
002EEEE7 2019-04-14 07:09:13 21.9 19 27.1
002EEEE7 2019-04-14 06:38:00 21.8 19 27.2
002EEEE7 2019-04-14 06:06:48 21.9 19 27.2
002EEEE7 2019-04-14 05:35:36 21.9 19 27.3
002EEEE7 2019-04-14 05:04:24 21.9 19 27.1
002EEEE7 2019-04-14 04:33:12 21.9 19 27.1
002EEEE7 2019-04-14 04:01:59 22 19 27.1
002EEEE7 2019-04-14 03:30:45 22 19 27.1
002EEEE7 2019-04-14 02:59:33 22 19 27.2
002EEEE7 2019-04-14 02:28:20 22 19 27
002EEEE7 2019-04-14 01:57:09 22 19 27.1
002EEEE7 2019-04-14 01:25:57 22 19 27.1
002EEEE7 2019-04-14 00:54:45 22 19 27.1
002EEEE7 2019-04-14 00:23:34 22 19 27
002EEEE7 2019-04-13 23:52:23 22 19 27
002EEEE7 2019-04-13 23:21:12 22 19 27.2
002EEEE7 2019-04-13 22:50:00 22 19 27.2
002EEEE7 2019-04-13 22:18:48 22 19 27.2
002EEEE7 2019-04-13 21:47:34 22.1 19 27.2
002EEEE7 2019-04-13 21:16:22 22.1 19 27.2
002EEEE7 2019-04-13 20:45:10 22.2 19 27.2
002EEEE7 2019-04-13 20:13:58 22.2 19 27.2
002EEEE7 2019-04-13 19:42:46 22.2 19 27.1
002EEEE7 2019-04-13 19:11:34 22.2 19 27.2
002EEEE7 2019-04-13 18:40:21 22.2 19 27
002EEEE7 2019-04-13 18:09:09 22.2 19 27
002EEEE7 2019-04-13 17:37:56 22.2 19 26.8
002EEEE7 2019-04-13 17:06:45 22.2 19 26.8
002EEEE7 2019-04-13 16:35:32 22.2 19 26.8
002EEEE7 2019-04-13 16:04:19 22.2 19 27
002EEEE7 2019-04-13 15:33:07 22.2 19 27
002EEEE7 2019-04-13 15:01:55 22.3 19 27.2
002EEEE7 2019-04-13 14:30:44 22.3 19 27
002EEEE7 2019-04-13 13:59:32 22.3 19 27
002EEEE7 2019-04-13 13:28:19 22.3 19 27.1
002EEEE7 2019-04-13 12:57:08 22.4 19 27
002EEEE7 2019-04-13 12:25:54 22.4 19 26.9
002EEEE7 2019-04-13 11:54:41 22.5 19 27
002EEEE7 2019-04-13 11:23:30 22.3 20 27
002EEEE7 2019-04-13 10:52:18 22.3 19 26.9
002EEEE7 2019-04-13 10:21:07 22.3 19 26.6
002EEEE7 2019-04-13 09:49:54 22.4 19 26.6
002EEEE7 2019-04-13 09:18:42 22.4 19 26.8
002EEEE7 2019-04-13 08:47:30 22.4 19 26.9
002EEEE7 2019-04-13 08:16:19 22.3 19 26.8
002EEEE7 2019-04-13 07:45:07 22.3 19 26.8
002EEEE7 2019-04-13 07:13:55 22.3 19 26.6
002EEEE7 2019-04-13 06:42:43 22.3 19 26.6
002EEEE7 2019-04-13 06:11:29 22.4 19 26.6
002EEEE7 2019-04-13 05:40:17 22.4 19 26.6
002EEEE7 2019-04-13 05:09:05 22.3 19 26.7
002EEEE7 2019-04-13 04:37:51 22.3 19 26.7
002EEEE7 2019-04-13 04:06:40 22.5 19 26.9
002EEEE7 2019-04-13 03:35:28 22.5 19 27.1
002EEEE7 2019-04-13 03:04:15 22.5 19 27.1
002EEEE7 2019-04-13 02:33:03 22.5 20 27.1
002EEEE7 2019-04-13 02:01:51 22.5 20 27
002EEEE7 2019-04-13 01:30:38 22.5 20 27
002EEEE7 2019-04-13 00:59:25 22.5 20 27
002EEEE7 2019-04-13 00:28:13 22.6 20 27
002EEEE7 2019-04-12 23:57:00 22.6 20 27
002EEEE7 2019-04-12 23:25:48 22.7 20 27.1
002EEEE7 2019-04-12 22:54:36 22.7 20 27.2
002EEEE7 2019-04-12 22:23:25 22.7 20 27.1
002EEEE7 2019-04-12 21:52:13 22.7 21 27.3
002EEEE7 2019-04-12 21:21:01 22.8 21 27.5
002EEEE7 2019-04-12 20:49:48 22.9 20 27.7
002EEEE7 2019-04-12 20:18:36 22.9 20 27.4
002EEEE7 2019-04-12 19:47:21 22.9 20 27.4
002EEEE7 2019-04-12 19:16:09 22.9 20 27.6
002EEEE7 2019-04-12 18:44:56 22.9 19 27.8
002EEEE7 2019-04-12 18:13:42 23 19 28
002EEEE7 2019-04-12 17:42:30 23.1 19 28.3
002EEEE7 2019-04-12 17:11:17 23.1 19 28.6
002EEEE7 2019-04-12 16:40:04 23.1 19 28.8
002EEEE7 2019-04-12 16:08:52 23 20 28.6
002EEEE7 2019-04-12 15:37:40 22.9 20 28.8
002EEEE7 2019-04-12 15:06:27 22.7 20 28.4
002EEEE7 2019-04-12 14:35:14 22.4 20 27.7
002EEEE7 2019-04-12 14:04:00 22 21 25.9
002EEEE7 2019-04-12 13:32:45 21.6 22 26.8
002EEEE7 2019-04-12 13:01:31 20.7 29 0